Temp
48 49 49 48 46 49 51 50 50 52 52 53 53 52 52 53 53 53 46 49 48 39 38 40 42 36 36 38 32 32 31 31 31 29 30 29 26 23 24 25 24 24 21 20 19 19 24 38 36 38 49 44 45 42
48 48 48 47 46 47 50 50 49 51 52 52 53 53 52 51 53 53 44 48 47 43 38 40 40 40 43 47 36 35 36 33 36 33 29 26 24 19 24 29 26 26 32 27 30 31 40 39 42 45 44 47 44 44
47 47 47 47 46 45 50 50 50 49 50 51 52 52 53 52 52 52 47 46 42 34 35 36 36 41 42 44 47 35 34 38 37 39 33 30 28 28 24 24 26 27 30 30 27 37 36 39 42 42 42 43 45 44
47 47 47 46 45 45 48 49 50 49 48 50 51 51 51 51 51 51 48 46 47 38 34 34 38 37 41 42 41 42 39 36 35 36 33 31 29 33 31 31 31 31 30 28 28 33 35 37 38 43 44 43 42 44
46 46 46 46 47 47 47 48 49 48 47 48 50 50 50 50 51 49 49 47 49 43 33 32 33 35 38 41 39 39 39 35 33 31 30 30 32 31 29 28 26 30 30 33 39 41 45 46 45 44 40 40 42 42
45 46 47 47 47 47 47 48 48 48 47 47 49 49 49 48 49 46 36 44 50 43 33 30 32 32 35 38 37 37 37 35 34 33 31 32 30 31 27 27 34 35 36 43 47 38 39 37 33 34 39 40 39 38
46 46 46 46 46 47 47 47 48 47 46 45 48 48 49 49 45 40 37 44 49 44 34 26 27 31 34 33 32 32 33 32 32 31 29 30 29 30 26 27 37 36 42 42 42 36 38 34 45 36 32 30 29 32
45 46 46 46 46 46 47 47 47 48 46 45 47 48 48 48 47 39 45 48 50 39 35 27 24 28 33 30 29 32 30 32 31 31 27 28 26 26 24 30 40 47 47 36 38 37 43 33 30 28 24 23 26 29
45 45 46 46 46 46 46 46 47 47 45 44 45 47 43 40 33 36 48 48 44 38 32 27 24 23 32 30 30 30 32 28 28 30 29 29 27 24 33 33 37 40 37 40 38 39 33 31 37 33 27 23 27 33
45 45 45 45 45 45 46 46 46 47 46 44 41 33 30 33 43 46 38 35 35 34 32 29 27 25 32 29 28 28 31 27 24 28 25 24 26 34 33 36 38 39 39 34 30 28 26 27 33 34 31 34 34 37
44 44 45 45 45 45 45 45 46 46 46 36 30 28 34 43 38 34 31 31 31 28 29 26 28 26 32 29 28 31 28 28 24 25 25 24 22 31 36 38 41 41 36 33 37 38 37 37 39 34 32 32 32 32
44 44 44 45 45 45 45 45 46 41 34 33 33 35 33 31 32 30 28 30 30 29 25 25 28 30 28 32 29 28 27 25 21 23 22 20 29 30 34 35 31 29 28 30 31 35 36 34 33 30 31 33 31 31
42 43 44 44 45 45 45 45 45 43 38 33 27 24 28 28 25 24 23 25 25 24 25 27 27 29 29 31 28 26 24 23 23 20 21 27 28 28 27 26 27 22 16 16 20 18 20 22 21 26 30 31 31 29
43 43 44 44 45 45 45 45 43 38 32 26 19 18 23 23 26 24 31 34 26 25 27 33 26 29 28 26 26 24 22 22 18 14 19 30 25 32 24 19 21 25 21 18 19 16 15 15 16 17 20 25 27 26
43 44 44 43 44 44 44 43 40 35 30 23 24 18 24 25 18 14 16 24 23 32 34 24 26 27 25 23 21 16 14 15 18 24 28 30 27 20 18 19 17 13 12 17 18 15 14 13 13 14 16 17 20 22
42 41 36 43 42 40 38 36 34 32 28 22 23 24 22 21 22 21 17 22 33 35 33 27 25 25 24 21 13 16 16 16 27 23 27 21 16 17 16 13 10 10 11 12 13 13 13 12 13 15 13 15 14 16
37 28 41 42 44 43 39 31 28 23 24 19 17 18 26 27 25 23 21 29 37 34 32 22 23 26 19 16 16 19 18 31 26 21 15 13 15 10 6 5 6 7 9 9 10 10 11 12 11 15 19 19 15 15
23 30 43 44 38 34 25 21 17 16 14 14 15 24 25 25 25 23 28 33 34 37 26 27 20 17 18 18 19 23 18 11 11 12 9 6 5 4 5 9 6 6 8 7 8 9 10 11 15 17 13 15 14 15
29 36 43 42 32 21 16 21 19 9 14 13 12 16 23 23 26 27 28 36 22 24 26 24 27 23 21 8 7 5 5 7 10 9 7 2 3 2 3 5 5 7 5 8 10 12 12 10 12 12 13 14 16 16
41 43 43 42 34 16 13 14 17 10 12 20 16 20 23 23 28 29 28 17 16 17 12 8 -0 -7 -5 -3 -3 -3 -1 -1 1 8 8 7 5 4 3 4 7 6 9 9 10 8 13 14 13 12 12 13 15 15
29 29 39 34 22 18 14 18 22 21 20 18 20 23 22 28 28 22 9 8 1 -8 -5 -7 -6 -5 -3 -2 -3 -4 -2 -3 -1 -1 4 6 4 4 3 4 4 7 8 8 9 10 9 9 9 10 12 13 13 13
18 27 15 20 21 23 19 20 18 19 18 23 23 22 24 17 14 6 5 -5 -10 -9 -9 -9 -7 -6 -4 -4 -4 -5 -5 -4 -4 -2 -1 0 4 4 2 -0 3 4 5 5 6 7 8 10 10 11 12 12 11 13
17 17 10 8 16 19 15 13 16 19 17 17 19 16 13 10 5 3 -11 -10 -10 -7 -8 -8 -8 -6 -4 -2 -3 -4 -4 -4 -4 -4 -3 -1 -1 -1 -0 -1 -1 0 3 4 4 7 8 8 10 11 12 12 12 12
8 -5 -2 -3 -3 5 2 3 9 11 13 13 13 6 5 7 4 -6 -15 -14 -11 -8 -9 -9 -6 -2 -2 -4 -6 -7 -6 -6 -4 -3 -4 -3 0 1 -0 -1 -1 -0 0 1 3 5 8 9 9 11 11 11 11 11
7 -11 -7 -10 -6 -6 -3 -1 -0 5 5 3 5 1 -2 1 -3 -11 -15 -15 -13 -12 -12 -10 -8 -7 -9 -8 -7 -7 -6 -7 -7 -7 -5 -5 -4 -1 0 -0 -1 -1 1 1 1 3 5 7 9 10 11 11 11 11
-11 -15 -12 -17 -13 -12 -13 -7 -10 -11 -6 -2 -9 -8 -3 -0 -7 -18 -18 -16 -14 -12 -13 -12 -12 -10 -9 -8 -10 -8 -8 -5 -5 -5 -5 -5 -5 -5 -4 -4 -3 -0 0 -0 -1 -0 2 4 5 5 7 7 9 9
-13 -16 -12 -10 -12 -12 -11 -11 -10 -12 -15 -17 -17 -14 0 -7 -15 -17 -12 -11 -12 -10 -9 -9 -9 -9 -9 -8 -7 -7 -6 -5 -6 -4 -2 -2 -2 -3 -4 -6 -6 -3 1 -0 -1 -0 0 2 3 4 5 6 6 8
-14 -15 -16 -14 -13 -13 -14 -15 -17 -20 -19 -17 -15 -18 -14 -16 -18 -14 -12 -9 -10 -10 -9 -7 -7 -8 -7 -7 -7 -8 -7 -6 -5 -3 -1 -1 -2 -1 -2 -2 -1 4 -0 -0 1 3 4 3 2 2 3 4 4 7
-14 -15 -15 -13 -13 -15 -17 -17 -17 -15 -15 -16 -15 -17 -18 -14 -13 -13 -11 -11 -10 -10 -11 -11 -9 -7 -6 -6 -6 -7 -7 -8 -4 -4 -5 -6 -6 -4 -2 -2 -2 -1 -1 -1 2 6 8 2 2 3 3 4 4 5
-16 -18 -14 -13 -14 -17 -16 -15 -15 -13 -12 -14 -13 -13 -13 -12 -11 -9 -11 -11 -12 -13 -11 -11 -10 -10 -11 -11 -11 -8 -8 -8 -9 -10 -10 -10 -8 -5 -4 -3 -2 -2 -1 -2 -1 0 6 3 4 2 2 2 2 1
-26 -27 -20 -19 -17 -16 -17 -19 -18 -18 -16 -15 -14 -13 -15 -13 -11 -10 -10 -12 -11 -11 -11 -12 -11 -12 -12 -13 -14 -14 -12 -8 -9 -9 -8 -7 -5 -5 -3 -2 -2 -2 -2 -1 0 0 -2 -3 -3 -3 -3 -4 -3 -3
-31 -35 -27 -25 -25 -27 -28 -29 -32 -31 -29 -27 -26 -26 -23 -19 -16 -14 -16 -18 -18 -17 -16 -15 -13 -12 -12 -11 -10 -10 -8 -9 -9 -9 -8 -5 -4 -0 -1 -2 -2 -2 -1 -1 -1 -1 -1 -3 -4 -5 -6 -6 -6 -6
-37 -38 -38 -34 -30 -30 -33 -32 -31 -29 -29 -31 -28 -35 -33 -28 -20 -19 -23 -27 -22 -22 -21 -22 -22 -22 -19 -16 -15 -12 -9 -9 -8 -3 -1 1 2 2 -1 -2 -2 -2 -2 -2 -3 -3 -4 -5 -6 -7 -7 -8 -8 -8
MSLP
1011.57 1011.85 1012.14 1012.62 1012.85 1012.73 1012.87 1013.33 1013.64 1013.94 1014.14 1014.54 1014.93 1015.38 1015.86 1016.10 1016.32 1016.97 1018.26 1018.61 1018.83 1020.79 1022.26 1022.51 1022.82 1023.42 1024.93 1025.56 1026.59 1028.72 1029.91 1030.66 1030.70 1030.67 1030.28 1030.11 1031.06 1030.98 1030.93 1030.74 1030.91 1030.61 1031.18 1030.95 1030.74 1029.28 1025.26 1023.40 1024.23 1023.35 1020.62 1020.42 1020.57 1020.96
1010.90 1011.42 1011.63 1012.17 1012.78 1012.73 1012.64 1013.03 1013.35 1013.92 1014.02 1014.30 1014.67 1014.95 1015.32 1015.82 1016.25 1016.82 1017.36 1018.20 1018.50 1020.01 1021.54 1022.13 1022.50 1022.28 1021.75 1021.97 1024.41 1026.79 1026.23 1027.19 1027.97 1028.67 1029.25 1029.60 1029.86 1030.54 1030.07 1029.95 1029.88 1029.45 1027.85 1027.88 1026.72 1024.01 1022.47 1022.30 1021.06 1020.72 1020.75 1020.55 1020.53 1020.67
1010.32 1010.76 1011.02 1011.49 1012.19 1012.61 1012.45 1012.71 1013.03 1013.73 1013.93 1014.24 1014.47 1014.98 1015.17 1015.59 1016.01 1016.38 1016.84 1018.17 1018.92 1020.39 1022.02 1022.41 1022.25 1021.80 1022.52 1021.96 1021.47 1024.00 1026.36 1026.22 1026.83 1026.92 1027.92 1028.54 1029.12 1028.86 1028.86 1028.26 1028.26 1027.65 1027.17 1026.74 1026.02 1021.59 1021.71 1021.62 1020.94 1020.92 1020.62 1020.62 1020.60 1020.63
1009.60 1010.28 1010.46 1011.04 1012.24 1012.37 1012.14 1012.78 1012.74 1013.29 1013.41 1014.06 1014.50 1014.60 1014.84 1015.28 1015.90 1016.13 1015.96 1017.13 1018.12 1019.22 1020.67 1021.49 1021.85 1021.96 1021.84 1022.12 1022.05 1021.96 1023.26 1025.23 1026.21 1027.31 1027.70 1027.66 1027.69 1027.10 1026.98 1026.92 1026.86 1026.27 1026.19 1024.95 1023.93 1021.71 1021.23 1020.53 1020.25 1019.43 1019.61 1020.16 1020.49 1020.59
1009.10 1009.49 1009.98 1010.74 1011.50 1011.87 1011.91 1012.33 1012.89 1012.90 1013.45 1013.84 1014.06 1014.21 1014.77 1015.32 1015.44 1015.82 1015.58 1015.93 1016.41 1017.75 1019.53 1020.99 1021.73 1021.75 1022.27 1022.20 1022.29 1022.74 1023.39 1024.55 1025.91 1027.18 1027.56 1027.45 1026.91 1027.16 1026.66 1026.53 1025.23 1024.51 1022.92 1022.47 1019.69 1018.92 1018.54 1017.95 1017.56 1017.92 1019.20 1019.40 1019.13 1020.04
1008.60 1008.95 1009.46 1010.35 1010.98 1011.09 1011.14 1011.74 1012.56 1012.71 1012.87 1013.44 1014.02 1014.17 1014.35 1015.01 1015.16 1015.46 1015.56 1015.44 1015.31 1016.96 1018.82 1020.83 1021.91 1022.02 1022.20 1022.45 1022.71 1023.19 1023.76 1024.50 1024.99 1025.61 1026.43 1026.20 1026.20 1026.18 1025.84 1024.11 1021.31 1020.49 1019.11 1018.32 1017.16 1017.73 1017.91 1017.58 1017.86 1018.37 1018.62 1018.42 1018.61 1019.13
1007.90 1008.41 1008.99 1009.55 1009.76 1010.11 1010.75 1011.52 1012.00 1012.63 1012.67 1013.35 1013.63 1013.73 1013.88 1014.48 1014.98 1014.81 1014.21 1014.29 1014.67 1015.94 1017.97 1020.49 1021.48 1022.23 1022.49 1022.81 1023.40 1023.91 1024.18 1024.66 1024.98 1025.39 1025.73 1026.03 1026.23 1025.63 1024.54 1021.42 1019.56 1018.81 1017.08 1017.54 1017.59 1017.91 1017.91 1018.15 1017.85 1017.76 1018.30 1018.43 1018.62 1018.61
1007.08 1007.55 1008.03 1008.58 1009.11 1009.75 1010.42 1011.01 1011.48 1011.75 1012.20 1012.99 1013.20 1013.14 1013.77 1014.36 1014.55 1014.12 1013.35 1013.92 1013.94 1014.98 1016.39 1019.08 1021.23 1021.89 1022.29 1022.72 1023.44 1023.75 1024.15 1024.42 1024.77 1025.03 1025.81 1025.69 1026.27 1025.55 1022.37 1018.30 1017.81 1016.18 1016.23 1016.82 1016.18 1016.65 1016.45 1017.34 1017.79 1017.98 1018.31 1018.69 1018.98 1018.75
1006.33 1006.86 1007.34 1007.93 1008.55 1009.15 1009.73 1010.31 1010.77 1011.04 1011.95 1012.81 1013.04 1013.26 1013.74 1013.95 1013.93 1012.71 1013.08 1013.62 1013.82 1014.82 1015.04 1017.69 1019.62 1020.87 1021.39 1022.00 1022.82 1023.47 1023.16 1024.43 1024.70 1024.56 1024.95 1024.94 1024.24 1021.80 1017.40 1017.10 1016.34 1014.86 1015.13 1014.18 1014.70 1015.56 1016.51 1017.11 1016.57 1017.42 1017.72 1017.97 1018.20 1017.69
1005.39 1006.03 1006.54 1007.07 1007.84 1008.54 1009.13 1009.58 1010.05 1010.62 1011.24 1012.18 1012.75 1013.21 1013.38 1012.58 1012.33 1011.88 1013.16 1013.79 1014.23 1013.54 1014.58 1015.97 1017.98 1019.20 1019.51 1020.68 1021.88 1022.35 1022.37 1023.26 1024.09 1023.94 1024.49 1023.83 1020.54 1016.43 1016.12 1015.60 1014.44 1013.80 1013.79 1014.62 1015.39 1015.98 1016.10 1016.03 1015.86 1015.58 1016.02 1016.08 1016.31 1016.24
1004.27 1004.87 1005.49 1006.29 1006.85 1007.48 1008.33 1009.00 1009.47 1010.21 1010.83 1011.64 1011.95 1012.09 1011.64 1011.14 1011.08 1011.47 1011.77 1012.03 1013.11 1014.84 1013.89 1015.26 1016.35 1016.97 1018.76 1019.11 1020.08 1020.70 1021.38 1022.20 1022.78 1022.75 1023.01 1021.62 1018.41 1014.61 1014.20 1013.94 1013.08 1012.43 1014.11 1014.35 1014.29 1014.29 1013.99 1014.14 1014.34 1014.62 1014.95 1015.02 1015.19 1015.29
1003.03 1003.67 1004.54 1005.31 1006.13 1006.87 1007.54 1008.18 1008.76 1009.66 1010.45 1011.10 1011.22 1011.37 1011.88 1011.43 1009.56 1009.47 1009.87 1010.44 1010.84 1011.07 1012.84 1013.80 1014.78 1015.64 1017.91 1018.25 1019.15 1020.35 1020.64 1021.53 1021.92 1022.17 1022.27 1019.56 1013.81 1013.02 1012.98 1012.70 1013.00 1013.61 1014.00 1014.11 1013.88 1013.83 1013.72 1014.11 1014.14 1014.34 1014.30 1014.14 1014.15 1014.29
1001.59 1002.46 1003.53 1004.42 1005.28 1006.13 1006.81 1007.46 1008.15 1009.17 1010.61 1011.51 1010.88 1011.13 1011.57 1009.39 1007.39 1007.32 1007.01 1008.86 1009.76 1010.03 1011.64 1012.67 1014.48 1015.81 1017.31 1017.58 1018.40 1019.30 1020.10 1020.94 1021.27 1021.59 1019.60 1014.65 1012.52 1012.49 1012.57 1013.21 1013.62 1014.10 1014.30 1014.68 1014.70 1014.76 1014.70 1014.46 1014.26 1014.25 1013.90 1013.80 1013.82 1013.73
998.47 1001.32 1002.69 1003.80 1004.68 1005.36 1006.12 1006.91 1008.03 1009.34 1010.38 1010.42 1010.27 1010.71 1010.03 1007.64 1006.38 1005.49 1005.18 1005.77 1007.46 1008.00 1009.36 1010.89 1013.05 1014.15 1015.75 1016.92 1017.96 1018.78 1020.16 1020.20 1020.55 1019.09 1014.41 1012.09 1012.57 1012.47 1012.76 1013.59 1014.29 1014.58 1014.96 1015.20 1015.43 1015.63 1015.32 1014.97 1014.59 1014.35 1014.15 1013.94 1013.91 1013.64
1000.06 1001.45 1002.63 1003.62 1004.15 1004.93 1005.62 1006.60 1007.86 1009.23 1009.45 1009.31 1009.01 1009.23 1008.37 1007.32 1006.98 1006.99 1006.29 1005.96 1006.85 1007.30 1008.17 1010.95 1012.50 1013.64 1015.23 1016.73 1017.65 1019.27 1020.16 1018.73 1016.98 1013.68 1012.04 1011.63 1012.22 1012.99 1014.00 1014.58 1015.02 1015.27 1015.52 1015.75 1015.83 1015.89 1015.68 1015.31 1014.97 1014.67 1014.29 1014.09 1013.83 1013.72
1001.45 1002.23 1003.26 1003.52 1004.37 1005.21 1005.91 1006.49 1007.22 1007.97 1008.55 1008.88 1008.59 1008.42 1007.86 1007.63 1007.56 1007.36 1007.06 1005.98 1005.41 1006.37 1007.78 1009.35 1011.58 1013.21 1014.16 1015.07 1016.71 1016.52 1016.47 1014.57 1012.30 1011.86 1011.47 1012.23 1013.35 1014.25 1014.71 1015.33 1015.84 1016.13 1016.54 1016.56 1016.22 1016.12 1015.76 1015.72 1015.70 1015.03 1014.46 1014.17 1013.99 1013.90
1002.43 1002.80 1003.17 1003.88 1004.39 1005.06 1005.81 1006.38 1007.28 1008.28 1009.00 1009.07 1008.52 1007.58 1007.75 1007.65 1007.84 1007.66 1007.22 1006.01 1005.03 1005.66 1006.77 1008.77 1011.12 1012.64 1014.33 1015.22 1015.43 1014.72 1013.00 1011.47 1011.66 1012.24 1012.98 1013.76 1014.64 1015.54 1016.02 1016.37 1016.82 1017.19 1016.95 1016.60 1016.32 1016.54 1016.02 1015.65 1015.53 1015.14 1014.54 1014.40 1014.20 1014.14
1003.20 1003.26 1003.52 1003.93 1004.76 1005.76 1006.80 1007.18 1008.53 1009.19 1009.48 1009.10 1009.03 1007.91 1007.82 1007.69 1007.27 1007.16 1006.75 1006.22 1005.95 1005.14 1006.43 1007.76 1009.56 1012.84 1013.62 1014.09 1013.46 1012.56 1012.90 1013.48 1014.02 1014.55 1015.06 1015.88 1016.32 1016.77 1017.07 1017.06 1016.96 1016.93 1017.01 1016.49 1016.36 1016.37 1015.92 1015.31 1015.29 1015.14 1015.09 1014.75 1014.34 1014.04
1003.27 1003.41 1003.68 1004.36 1004.97 1006.34 1007.88 1008.68 1008.75 1009.42 1009.03 1008.51 1008.35 1008.12 1007.41 1007.22 1006.71 1006.22 1006.76 1006.50 1007.00 1006.76 1007.28 1008.82 1011.09 1013.60 1014.44 1015.12 1015.31 1015.22 1015.57 1015.93 1016.10 1016.11 1016.80 1017.56 1017.59 1017.53 1017.57 1017.33 1017.06 1016.98 1016.79 1016.69 1016.69 1016.71 1016.40 1016.09 1015.98 1015.67 1015.28 1014.75 1014.21 1014.18
1003.04 1003.51 1004.12 1004.75 1005.35 1007.24 1008.69 1008.79 1008.68 1009.14 1008.85 1007.69 1007.80 1007.39 1006.79 1006.70 1006.64 1006.76 1007.48 1008.65 1009.29 1009.74 1010.94 1013.38 1015.74 1017.46 1018.07 1018.66 1018.94 1018.82 1018.83 1019.02 1018.00 1017.61 1017.78 1018.03 1018.25 1018.21 1018.15 1017.82 1017.51 1017.47 1017.35 1016.90 1016.83 1016.71 1016.44 1016.32 1015.92 1015.43 1015.14 1015.02 1014.35 1014.20
1004.53 1005.59 1005.14 1005.67 1006.91 1007.88 1008.85 1008.83 1008.80 1008.01 1007.32 1007.37 1006.71 1007.10 1006.29 1006.13 1006.91 1008.24 1010.66 1011.65 1013.05 1016.36 1017.69 1018.89 1019.76 1020.29 1020.73 1020.64 1020.69 1020.70 1020.57 1020.11 1019.47 1019.51 1019.01 1019.04 1019.04 1018.61 1018.45 1018.44 1018.09 1017.93 1017.74 1017.28 1017.03 1016.87 1016.49 1016.27 1015.96 1015.51 1015.33 1015.15 1014.84 1014.54
1007.01 1006.83 1007.49 1007.70 1008.35 1008.70 1008.92 1008.63 1008.83 1008.17 1008.04 1006.34 1006.26 1006.80 1006.83 1007.95 1009.66 1011.92 1013.49 1015.32 1018.91 1021.12 1021.82 1021.92 1022.05 1021.84 1021.60 1021.41 1021.64 1021.72 1021.30 1020.82 1020.70 1020.41 1019.98 1019.62 1019.77 1019.46 1019.24 1019.19 1018.88 1018.68 1018.27 1018.10 1017.60 1017.20 1016.80 1016.35 1016.00 1015.68 1015.52 1015.40 1015.10 1014.90
1008.04 1008.57 1010.18 1010.55 1010.27 1009.80 1010.54 1009.92 1009.30 1008.68 1008.22 1007.19 1006.76 1007.35 1008.00 1009.39 1012.05 1014.04 1017.80 1020.64 1022.41 1023.48 1023.71 1023.51 1023.43 1023.00 1022.65 1022.67 1022.47 1022.26 1022.02 1021.96 1021.78 1021.74 1021.04 1020.54 1020.47 1020.35 1020.21 1020.05 1019.99 1019.47 1018.97 1018.56 1018.05 1017.53 1017.12 1016.66 1016.27 1016.08 1015.86 1015.52 1015.07 1015.33
1010.79 1013.14 1014.36 1014.63 1014.44 1013.42 1012.74 1012.07 1011.25 1010.39 1009.57 1009.32 1009.44 1010.85 1011.85 1012.66 1014.20 1017.55 1021.19 1023.34 1024.52 1024.76 1024.66 1024.44 1023.61 1023.11 1023.10 1022.75 1022.75 1023.03 1023.16 1023.00 1023.02 1022.52 1021.92 1021.39 1021.30 1021.07 1021.07 1020.96 1020.63 1020.35 1020.03 1019.35 1018.81 1018.29 1017.76 1017.03 1016.57 1016.22 1015.84 1015.71 1015.63 1015.63
1013.22 1018.73 1018.52 1018.10 1017.61 1016.94 1015.55 1014.69 1014.00 1012.99 1013.03 1012.69 1012.44 1013.51 1014.08 1014.84 1016.87 1020.47 1023.40 1025.30 1025.81 1025.96 1026.01 1025.54 1024.98 1024.66 1024.40 1024.08 1023.77 1024.11 1023.99 1024.11 1024.02 1023.42 1022.94 1022.50 1021.91 1021.55 1021.64 1021.50 1021.41 1021.31 1020.94 1020.08 1019.52 1018.99 1018.16 1017.42 1017.12 1016.98 1016.57 1016.00 1015.82 1015.84
1017.82 1021.47 1021.75 1021.71 1020.69 1020.10 1019.72 1018.54 1017.88 1017.74 1016.86 1016.07 1016.98 1016.96 1016.51 1016.83 1019.59 1023.72 1025.67 1026.73 1026.94 1027.02 1026.86 1026.47 1025.87 1025.42 1025.14 1024.84 1024.87 1024.70 1024.61 1024.63 1024.48 1023.94 1023.73 1023.44 1023.10 1022.87 1022.62 1022.09 1021.98 1021.66 1021.38 1020.87 1020.36 1019.70 1018.92 1018.49 1018.20 1017.82 1017.25 1016.86 1016.47 1016.25
1021.15 1023.10 1023.51 1023.32 1022.94 1022.22 1021.79 1021.43 1021.20 1020.88 1020.07 1020.36 1020.41 1019.19 1018.21 1020.21 1023.54 1025.97 1027.00 1027.59 1027.68 1027.56 1027.36 1026.97 1026.68 1026.35 1026.02 1025.82 1025.49 1025.34 1025.32 1025.26 1024.94 1024.45 1024.22 1024.04 1023.87 1023.57 1023.01 1023.01 1022.90 1022.37 1021.64 1021.21 1020.90 1020.34 1019.66 1019.18 1018.74 1018.32 1017.97 1017.62 1017.25 1016.97
1023.58 1024.18 1024.52 1024.65 1024.06 1023.90 1023.64 1023.49 1023.64 1024.10 1024.21 1024.17 1023.26 1023.05 1023.69 1025.34 1026.95 1027.61 1027.83 1028.09 1028.19 1027.92 1027.49 1027.06 1026.73 1026.51 1026.30 1026.33 1026.09 1025.78 1025.47 1025.31 1024.66 1024.28 1024.10 1024.04 1023.91 1023.36 1023.14 1023.15 1022.92 1022.27 1021.82 1021.44 1020.88 1020.18 1019.62 1019.26 1018.99 1018.70 1018.54 1018.23 1017.96 1017.82
1025.57 1025.74 1025.39 1025.08 1025.23 1025.67 1026.23 1026.07 1026.15 1026.26 1026.47 1025.92 1025.52 1026.20 1027.03 1027.63 1028.23 1028.42 1028.40 1028.37 1028.11 1027.87 1027.51 1027.17 1026.94 1026.79 1026.70 1026.66 1026.63 1026.52 1026.19 1025.72 1024.89 1024.63 1024.61 1024.54 1024.13 1023.74 1023.47 1023.16 1022.78 1022.36 1022.02 1021.50 1020.75 1020.17 1019.37 1019.33 1019.24 1019.01 1018.87 1018.74 1018.61 1018.57
1027.69 1027.47 1026.89 1026.71 1026.86 1027.74 1028.22 1028.01 1027.95 1027.86 1027.53 1027.50 1027.39 1027.74 1028.23 1028.76 1028.94 1028.98 1028.95 1028.87 1028.79 1028.66 1028.40 1028.21 1028.06 1027.82 1027.65 1027.26 1027.00 1026.71 1026.64 1026.40 1026.19 1025.84 1025.69 1025.61 1025.29 1024.68 1024.00 1023.37 1022.91 1022.53 1022.05 1021.63 1021.17 1020.62 1020.07 1019.83 1019.69 1019.65 1019.56 1019.49 1019.51 1019.67
1029.40 1029.04 1028.67 1029.01 1029.77 1030.14 1030.14 1029.92 1029.50 1029.29 1028.95 1028.81 1028.72 1028.99 1029.63 1029.73 1029.76 1029.81 1029.68 1029.56 1029.45 1029.28 1029.08 1028.99 1028.80 1028.66 1028.44 1028.30 1028.04 1027.65 1027.18 1026.85 1026.68 1026.39 1026.27 1025.89 1025.22 1024.55 1024.03 1023.62 1023.11 1022.74 1022.37 1021.93 1021.42 1021.01 1020.76 1020.63 1020.59 1020.58 1020.62 1020.67 1020.71 1020.75
1031.11 1031.60 1031.53 1032.10 1032.18 1031.65 1031.26 1031.39 1031.08 1030.58 1030.53 1030.55 1030.96 1030.72 1030.71 1030.50 1030.35 1030.36 1030.57 1030.60 1030.25 1030.08 1030.05 1029.84 1029.53 1029.22 1028.96 1028.64 1028.36 1028.03 1027.79 1027.35 1026.87 1026.58 1026.09 1025.53 1024.86 1024.28 1024.03 1023.65 1023.28 1022.90 1022.59 1022.21 1021.80 1021.45 1021.31 1021.27 1021.33 1021.50 1021.67 1021.86 1021.99 1022.04
1033.54 1033.37 1033.61 1034.27 1034.14 1033.76 1033.47 1033.38 1032.97 1032.46 1031.80 1031.96 1031.68 1031.60 1031.30 1031.11 1030.85 1030.69 1030.48 1030.75 1030.44 1030.46 1030.18 1030.07 1029.71 1029.59 1029.51 1029.25 1028.93 1028.50 1028.10 1027.76 1027.38 1026.74 1026.07 1025.20 1024.64 1024.19 1024.11 1023.79 1023.59 1023.32 1023.12 1022.79 1022.46 1022.24 1022.12 1022.14 1022.31 1022.56 1022.79 1023.02 1023.23 1023.35
Wind_Speed
20 17 14 10 11 15 12 7 4 7 7 12 11 11 9 21 33 18 3 10 7 4 4 6 8 9 5 5 7 8 6 2 2 5 4 4 5 6 3 4 8 10 10 6 5 4 10 10 7 8 1 2 2 4
20 19 15 13 10 18 14 12 5 9 9 5 10 10 11 9 21 24 2 7 3 4 3 3 2 4 1 13 10 11 2 6 8 4 3 3 3 3 2 4 2 6 7 7 12 10 0 16 2 8 2 3 4 4
19 18 16 14 11 18 13 12 14 9 8 10 11 8 9 12 13 20 3 6 4 5 1 3 7 6 4 4 5 10 2 6 4 1 4 3 5 5 6 8 4 7 4 4 2 5 15 13 16 12 7 12 4 4
18 18 17 14 15 18 14 13 10 13 7 10 12 9 6 6 6 9 8 5 6 3 4 3 1 3 2 3 4 3 10 8 7 2 2 3 3 5 3 0 3 2 10 6 9 10 8 14 16 18 15 14 10 8
16 15 15 18 19 20 16 14 13 11 10 13 13 10 8 5 5 3 4 8 8 6 5 3 2 2 1 6 10 9 15 9 4 5 3 4 2 2 1 0 6 9 10 9 12 11 5 6 7 12 15 17 18 15
18 18 17 20 20 17 16 17 17 14 13 14 12 10 10 7 4 1 3 5 11 5 6 4 2 2 3 7 10 11 8 4 3 5 4 3 2 3 4 6 6 15 17 16 18 4 8 2 3 2 9 13 13 14
21 21 21 19 18 17 18 18 19 17 15 13 13 11 10 7 3 6 4 2 15 4 5 4 2 3 6 5 3 3 2 2 2 3 3 2 2 4 3 10 5 14 20 16 14 3 10 5 10 9 9 2 2 6
23 23 22 21 20 20 21 20 19 19 16 13 14 8 8 6 5 7 10 10 15 6 5 5 3 4 3 3 4 2 3 2 2 2 2 4 2 2 11 4 12 27 18 11 20 16 21 2 2 5 3 4 5 8
23 23 23 23 22 22 20 19 18 18 19 16 15 8 3 4 3 4 16 14 3 3 7 6 10 8 7 3 3 2 3 3 1 4 4 5 4 12 10 11 17 19 14 16 10 14 10 13 21 9 7 6 8 12
25 24 25 23 23 23 21 21 20 19 19 17 9 4 4 7 7 20 4 4 3 2 1 5 4 5 6 4 3 4 3 4 5 5 5 6 9 17 7 16 16 18 20 7 4 4 5 8 17 18 17 15 15 14
28 28 27 25 25 23 22 21 20 19 18 6 4 6 5 8 5 5 6 6 6 7 4 5 5 11 3 6 5 1 5 5 5 5 7 5 10 9 13 23 25 25 7 10 12 11 11 9 11 9 11 13 13 14
27 29 28 28 25 24 23 23 22 15 3 6 4 3 1 4 6 8 10 6 6 8 5 7 6 6 4 3 4 4 4 3 6 6 4 7 9 10 8 15 4 3 6 7 11 15 15 11 10 7 7 9 10 11
31 29 29 27 26 23 24 25 22 14 11 1 1 4 3 7 9 13 13 6 6 7 9 9 9 6 5 2 5 4 7 5 9 3 8 12 3 5 7 4 5 2 3 0 3 3 5 5 4 6 11 9 8 7
36 33 29 27 24 25 24 22 21 16 3 4 5 6 7 6 6 4 11 13 5 8 14 15 7 5 4 4 5 7 3 6 6 8 17 3 7 13 5 3 4 4 1 2 4 4 5 5 5 4 7 6 7 9
27 26 24 22 22 22 23 21 17 8 5 5 5 6 8 4 1 3 4 7 4 13 17 8 5 4 4 6 3 6 4 8 11 12 8 3 5 4 5 4 3 0 2 3 2 4 5 5 5 6 5 5 5 7
15 17 6 17 18 16 11 10 8 2 1 2 2 4 1 2 2 3 3 1 9 15 10 4 7 5 4 7 6 12 9 12 8 7 3 4 5 4 4 3 1 2 3 4 3 4 4 4 5 6 6 5 4 5
13 1 22 22 21 21 15 4 3 3 3 2 4 1 5 8 9 4 3 4 12 16 12 6 8 7 6 4 6 8 10 5 2 2 2 2 4 4 2 1 1 3 3 3 2 4 4 3 3 3 4 4 5 5
1 6 24 21 12 7 3 4 4 3 3 4 1 6 2 2 3 4 4 5 8 11 7 7 9 6 8 10 6 4 2 2 3 3 3 3 2 3 1 1 0 0 2 2 1 4 4 4 3 3 5 4 4 2
6 9 22 20 8 6 4 2 4 3 6 3 2 2 3 2 5 0 4 10 2 1 8 2 6 6 5 3 2 2 3 2 2 3 3 2 2 1 1 2 2 2 3 2 2 2 2 2 2 2 3 2 2 2
20 22 22 17 9 5 4 4 3 3 4 4 2 3 3 4 3 4 1 4 4 4 6 5 3 1 2 3 3 2 3 4 2 3 2 1 3 3 4 3 3 2 1 3 2 1 1 1 1 3 3 3 3 3
12 8 4 6 4 5 3 1 3 5 3 3 3 3 3 2 2 3 3 3 7 5 3 2 2 2 3 1 2 2 3 3 2 3 2 2 1 2 3 3 3 3 3 3 3 3 3 3 3 3 3 3 3 2
3 12 4 7 3 1 1 1 3 3 3 2 3 2 3 3 3 4 2 8 5 3 3 2 2 3 4 5 5 5 4 4 2 2 3 2 0 1 3 4 3 3 4 4 3 4 3 4 4 3 3 3 2 2
8 6 6 6 1 3 1 6 0 2 5 2 2 3 5 4 4 3 7 4 3 4 3 2 3 3 2 3 4 6 9 7 5 4 4 4 4 3 3 4 4 3 3 5 4 4 4 5 3 2 1 1 3 2
13 10 8 5 6 4 6 4 3 3 3 3 3 3 3 2 4 6 5 3 3 4 6 8 6 2 1 4 6 6 7 5 3 4 6 4 2 4 4 4 4 4 4 3 4 3 4 4 4 3 3 3 3 2
7 10 6 7 5 6 6 6 6 4 1 4 3 3 3 3 5 5 3 3 4 5 5 6 5 6 4 2 3 4 4 4 4 3 5 4 2 1 1 1 3 5 5 5 6 5 5 6 5 5 4 3 3 4
10 6 6 4 4 5 4 4 6 4 5 3 3 4 3 3 6 5 2 3 3 3 5 6 6 5 4 5 4 4 5 5 4 2 4 5 5 3 2 4 3 3 6 5 5 6 7 6 5 5 4 5 3 3
7 5 3 1 2 3 1 1 2 3 5 7 5 8 4 7 5 3 1 2 3 3 4 4 3 3 4 5 4 4 4 4 3 1 1 2 3 3 4 4 4 4 7 6 5 5 5 5 4 3 3 3 4 3
2 4 4 4 3 3 2 3 5 6 4 5 3 8 5 5 2 2 2 2 3 4 4 2 1 2 2 3 4 5 4 5 5 2 2 2 1 3 6 4 5 10 6 6 6 6 5 3 2 2 3 3 4 5
3 4 3 3 3 4 5 5 3 2 2 2 3 4 3 2 1 2 2 3 3 3 3 4 4 4 2 1 2 3 5 6 4 3 4 3 5 4 7 6 6 6 6 7 10 9 5 1 2 3 4 4 5 5
3 3 1 3 5 6 3 4 2 3 2 2 1 3 3 1 1 1 2 2 2 2 2 2 2 3 3 3 3 3 3 5 5 5 4 4 5 7 7 7 7 6 6 6 6 6 6 4 4 3 4 5 5 6
2 2 3 5 4 1 2 3 3 3 4 4 4 4 3 2 1 0 1 1 1 1 1 2 2 3 3 4 4 4 4 2 7 6 5 5 6 7 6 6 5 5 5 6 5 3 2 3 3 5 6 8 8 8
4 4 3 4 2 4 4 3 1 2 3 4 3 1 2 1 2 1 2 1 2 3 3 3 3 3 4 3 3 2 4 6 6 6 8 7 7 5 5 5 5 5 5 4 3 2 4 5 5 6 7 9 9 10
3 2 4 4 5 6 4 4 6 4 5 5 4 2 1 2 3 4 2 1 3 3 3 3 3 3 4 4 3 4 5 5 8 11 12 11 11 7 5 5 5 4 4 3 4 5 6 9 8 8 9 9 9 9
Wind_Direction
229 234 235 228 271 254 186 163 218 200 200 207 188 196 216 202 196 184 147 192 155 142 180 195 168 140 126 164 150 146 116 187 141 205 189 199 210 206 178 149 181 176 164 185 138 216 274 154 109 199 245 158 170 196
223 228 226 220 232 265 208 202 197 236 193 209 209 194 193 196 216 204 127 178 106 113 159 141 285 306 246 173 127 189 106 150 162 171 215 105 180 164 169 229 190 232 202 190 204 207 37 201 206 218 293 243 195 199
230 220 221 218 208 258 222 217 195 251 245 222 199 208 209 191 216 210 142 145 79 112 57 151 197 193 266 217 160 129 197 168 189 81 149 160 228 156 178 228 197 232 178 233 278 227 228 224 243 242 230 232 228 232
216 223 212 207 222 239 232 222 216 214 264 251 207 185 201 171 206 228 189 170 161 118 161 212 353 176 160 135 60 65 122 92 102 104 182 171 209 188 212 331 231 174 148 179 258 279 268 247 235 241 233 224 235 226
219 218 214 215 219 219 223 229 231 206 217 263 220 176 149 165 207 253 234 181 173 167 175 135 95 139 232 160 119 117 135 124 133 146 187 217 176 176 121 10 226 195 186 187 234 203 198 225 211 216 214 221 224 218
224 223 216 210 215 225 227 222 228 218 204 244 252 197 157 135 104 60 239 195 189 128 110 157 37 73 129 140 133 142 138 95 121 147 186 205 159 178 215 238 237 202 217 221 243 161 211 223 305 213 208 219 217 207
227 225 224 224 220 222 223 224 223 222 202 228 237 213 175 193 148 216 181 277 161 118 114 117 149 87 109 93 85 101 44 107 127 151 192 175 195 191 239 239 197 231 237 225 242 116 267 190 248 207 215 190 166 220
227 229 228 223 219 218 219 226 222 222 201 218 225 210 210 239 253 253 264 192 169 133 122 131 99 134 199 144 123 156 122 138 163 139 122 173 130 211 251 204 216 238 244 222 235 212 240 99 299 225 189 151 224 237
227 228 230 229 224 223 218 222 225 221 198 202 239 222 196 208 219 219 165 177 137 184 147 133 161 176 162 114 115 132 139 153 60 196 204 163 177 226 225 200 223 232 207 229 222 223 216 227 252 236 200 205 229 238
231 229 225 219 218 223 219 216 215 213 197 194 214 156 215 215 208 121 149 153 219 69 209 119 117 151 145 149 139 132 149 164 183 203 126 208 251 244 215 226 241 236 226 186 156 247 210 239 241 235 218 227 224 236
227 225 224 220 218 213 214 212 212 205 201 167 193 189 235 232 136 179 190 163 134 215 162 128 177 138 214 153 135 203 155 165 198 182 199 220 258 238 212 229 238 243 214 209 224 236 219 213 238 226 223 225 225 232
230 221 217 213 213 212 207 205 207 195 152 176 175 122 102 257 195 190 173 154 192 174 145 140 143 116 145 140 117 167 146 150 218 137 184 250 244 228 226 233 263 245 234 237 214 235 246 238 246 238 234 232 218 223
220 215 209 208 207 205 204 203 206 174 129 203 144 88 192 232 206 180 157 161 171 164 157 159 133 135 144 136 102 142 161 174 123 174 226 236 210 240 231 198 239 185 129 84 296 284 261 246 258 231 255 253 250 227
191 193 196 196 199 203 201 200 176 150 162 195 151 170 236 238 246 200 170 177 149 141 151 150 119 130 116 112 147 144 102 139 193 219 228 228 217 234 189 181 163 184 117 275 282 278 285 281 272 280 268 271 266 255
147 166 175 186 192 199 203 176 188 157 194 195 146 203 223 314 320 290 311 113 152 151 140 112 88 109 133 125 108 111 143 219 214 228 225 206 217 167 170 167 178 122 343 309 299 285 291 307 315 292 275 278 255 255
139 141 159 171 159 149 141 139 157 102 41 94 220 249 250 329 341 344 314 156 153 149 125 76 130 142 152 131 145 203 175 214 221 211 200 138 152 147 134 124 313 326 300 286 312 304 320 299 283 294 304 293 304 280
101 136 144 150 150 143 135 84 85 71 136 225 253 234 232 264 276 249 214 253 161 151 164 134 135 177 109 161 216 190 210 221 153 173 106 88 133 143 134 133 194 271 273 289 351 275 254 271 269 293 338 351 331 311
109 183 163 156 117 81 23 61 79 84 220 252 145 248 173 229 220 228 231 201 176 182 154 178 127 162 182 183 223 212 194 79 47 92 95 80 98 91 184 212 337 67 299 323 302 305 324 17 8 353 318 316 293 337
212 170 160 141 110 95 93 344 106 171 231 211 268 242 186 233 258 231 245 188 314 9 118 115 151 175 190 26 327 358 7 6 155 137 100 68 60 82 61 80 77 28 16 17 5 323 308 292 304 296 296 307 29 2
155 156 154 140 96 80 45 307 83 138 243 226 162 231 197 198 202 160 133 46 36 21 47 41 63 65 310 344 335 317 321 310 295 106 107 58 18 39 43 29 37 5 73 85 98 342 22 167 354 13 15 355 15 22
60 359 154 119 35 74 132 212 249 214 211 192 170 188 238 174 134 71 67 342 63 33 71 48 52 352 308 287 356 314 329 338 10 338 8 148 10 28 41 30 34 59 67 52 45 22 28 31 334 351 356 355 1 24
30 30 62 6 92 269 234 202 212 296 271 255 137 145 179 103 70 35 40 51 58 43 20 1 341 331 4 33 12 12 340 8 10 345 1 15 149 12 31 17 14 47 47 38 31 22 357 353 349 360 8 358 7 37
43 39 44 10 85 235 97 336 203 172 274 291 50 36 14 51 66 92 67 47 74 15 336 320 292 271 22 31 38 32 25 11 28 12 18 38 43 39 45 41 22 32 34 20 359 360 359 337 355 356 326 10 44 31
36 46 32 38 11 345 320 2 325 321 359 328 82 87 33 49 100 55 67 43 11 353 5 353 352 6 20 29 35 18 8 0 352 24 18 22 51 54 40 32 19 20 359 315 339 347 347 1 355 16 40 72 74 70
71 5 15 4 14 2 357 354 359 11 343 336 55 38 4 287 84 58 56 14 355 9 356 353 15 30 33 8 25 360 353 11 350 11 9 2 342 11 7 13 36 20 350 8 11 353 355 4 8 3 1 45 87 89
70 7 30 8 351 29 345 327 17 340 306 56 44 309 281 66 66 62 17 346 335 340 350 353 358 355 11 22 346 347 351 338 324 37 10 8 20 33 19 26 353 349 0 354 345 350 358 355 358 4 15 12 42 99
63 12 25 147 296 299 331 336 318 4 30 17 348 339 356 55 46 26 13 34 333 335 319 317 318 337 343 342 339 331 313 305 305 312 306 40 43 37 43 23 346 312 322 331 327 327 329 331 341 355 14 22 21 36
61 29 33 357 40 349 0 39 27 21 359 340 273 26 65 33 72 337 336 351 319 305 292 289 354 341 357 356 343 339 328 315 285 254 261 251 240 35 19 351 329 336 330 317 313 305 307 299 314 34 55 56 39 25
40 344 298 37 80 66 37 18 23 28 348 317 16 64 84 63 8 329 334 325 308 317 6 10 4 352 1 347 11 12 5 1 7 60 35 4 351 352 350 338 334 332 329 326 322 325 304 159 88 84 79 74 60 55
9 1 358 60 42 47 21 358 9 340 357 19 60 107 83 68 48 312 320 355 15 4 350 0 348 4 15 6 351 10 37 31 33 38 18 353 324 310 315 324 328 325 325 323 320 321 345 23 39 35 55 60 64 70
321 5 69 43 81 34 331 325 316 353 1 23 7 55 88 129 182 265 354 353 323 336 31 16 29 24 21 21 16 359 350 16 359 349 325 293 291 301 306 318 315 313 311 312 319 335 15 36 53 70 68 70 72 77
12 52 79 75 329 311 7 36 297 90 349 61 355 9 354 120 109 257 228 107 52 44 14 5 5 3 356 348 352 347 317 313 325 322 311 308 300 309 324 321 318 317 321 338 358 40 74 81 80 82 81 79 79 82
78 38 32 52 19 358 334 39 17 16 17 15 342 334 325 122 97 265 295 150 161 194 234 238 242 253 269 287 299 313 330 317 312 328 325 331 334 6 350 341 338 341 353 20 44 66 79 90 89 89 86 87 87 87